Minneapolis, MN

3:15 PM CDT on July 23, 2016 (GMT -0500)
Minneapolis-Saint Paul International

Weather History for KMSP - September, 2013

Change the Weather History Date:

Wednesday, September 11, 2013

  Actual Average Record
Temperature  
Mean Temperature 76 °F 64 °F  
Max Temperature 86 °F 74 °F 96 °F (1895)
Min Temperature 66 °F 55 °F 35 °F (1962)
Degree Days  
Heating Degree Days 0 4  
Month to date heating degree days 3 27  
Since 1 July heating degree days 11 46  
Cooling Degree Days 11 3  
Month to date cooling degree days 102 39  
Year to date cooling degree days 951 720  
Growing Degree Days 26 (Base 50)    
Moisture  
Dew Point 56 °F    
Average Humidity 57    
Maximum Humidity 87    
Minimum Humidity 27    
Precipitation  
Precipitation 0.00 in 0.10 in 3.11 in (1900)
Month to date precipitation 0.02 1.19  
Year to date precipitation 26.46 23.36  
Snow  
Snow 0.00 in 0.00 in 0.00 in ()
Month to date snowfall 0.0 0.0  
Since 1 July snowfall T 0.0  
Since 1 September snowfall 0.0 0.0  
Snow Depth 0.00 in    
Sea Level Pressure  
Sea Level Pressure 30.01 in    
Wind  
Wind Speed 8 mph (West)    
Max Wind Speed 20 mph    
Max Gust Speed 28 mph    
Visibility 10 miles    
Events      
T = Trace of Precipitation, MM = Missing Value Source: NWS Daily Summary

Daily Weather History Graph

Daily Weather History Graph

Search for Another Location

Airport or City:

Trip Planner

Search our weather history database for the weather conditions in past years. The results will help you decide how hot, cold, wet, or windy it might be!

Date:

Astronomy

Sep. 11, 2013 Rise Set
Actual Time 6:47 AM CDT 7:30 PM CDT
Civil Twilight 6:17 AM CDT 8:00 PM CDT
Nautical Twilight 5:42 AM CDT 8:35 PM CDT
Astronomical Twilight 5:05 AM CDT 9:11 PM CDT
Moon 1:32 PM CDT (9/11) 11:10 PM CDT (9/11)
Length of Visible Light 13h 42m
Length of Day
12h 43m
Waxing Crescent, 39% of the Moon is Illuminated
Sep 11
Waxing Crescent
Sep 12
First Quarter
Sep 19
Full
Sep 26
Last Quarter
Oct 4
New

Hourly Weather History & Observations

Time (CDT) Temp. Heat Index Dew Point Humidity Pressure Visibility Wind Dir Wind Speed Gust Speed Precip Events Conditions
12:53 AM 70.0 °F - 60.1 °F 71% 29.99 in 10.0 mi West 3.5 mph - N/A   Mostly Cloudy
1:53 AM 69.1 °F - 60.1 °F 73% 29.99 in 10.0 mi WSW 3.5 mph - N/A   Mostly Cloudy
2:53 AM 68.0 °F - 61.0 °F 78% 29.99 in 10.0 mi Calm Calm - N/A   Mostly Cloudy
3:53 AM 68.0 °F - 61.0 °F 78% 30.00 in 10.0 mi Calm Calm - N/A   Mostly Cloudy
4:53 AM 66.9 °F - 62.1 °F 84% 30.00 in 10.0 mi Calm Calm - N/A   Mostly Cloudy
5:53 AM 66.9 °F - 62.1 °F 84% 30.01 in 10.0 mi SSW 4.6 mph - N/A   Mostly Cloudy
6:53 AM 66.0 °F - 62.1 °F 87% 30.01 in 10.0 mi Calm Calm - N/A   Scattered Clouds
7:53 AM 66.0 °F - 62.1 °F 87% 30.01 in 10.0 mi SSW 4.6 mph - N/A   Partly Cloudy
8:53 AM 72.0 °F - 61.0 °F 68% 30.01 in 10.0 mi WSW 8.1 mph - N/A   Scattered Clouds
9:53 AM 75.0 °F - 60.1 °F 60% 30.01 in 10.0 mi WSW 10.4 mph - N/A   Scattered Clouds
10:53 AM 79.0 °F - 59.0 °F 50% 30.01 in 10.0 mi West 10.4 mph - N/A   Partly Cloudy
11:53 AM 82.9 °F 82.4 °F 57.0 °F 41% 30.00 in 10.0 mi West 10.4 mph 18.4 mph N/A   Partly Cloudy
12:53 PM 84.0 °F 83.5 °F 57.9 °F 41% 30.00 in 10.0 mi WNW 12.7 mph 25.3 mph N/A   Partly Cloudy
1:53 PM 82.0 °F 81.7 °F 57.0 °F 42% 30.00 in 10.0 mi NW 11.5 mph 20.7 mph N/A   Scattered Clouds
2:53 PM 86.0 °F - 52.0 °F 31% 30.00 in 10.0 mi WNW 16.1 mph 23.0 mph N/A   Scattered Clouds
3:53 PM 84.9 °F - 46.9 °F 27% 30.00 in 10.0 mi WNW 16.1 mph 21.9 mph N/A   Scattered Clouds
4:53 PM 84.0 °F - 46.9 °F 27% 30.01 in 10.0 mi WNW 10.4 mph 19.6 mph N/A   Scattered Clouds
5:53 PM 84.0 °F - 48.0 °F 28% 30.00 in 10.0 mi NNW 13.8 mph 19.6 mph N/A   Scattered Clouds
6:53 PM 81.0 °F - 48.9 °F 33% 30.00 in 10.0 mi WNW 6.9 mph - N/A   Scattered Clouds
7:53 PM 79.0 °F - 50.0 °F 36% 30.00 in 10.0 mi Calm Calm - N/A   Partly Cloudy
8:53 PM 75.9 °F - 52.0 °F 43% 30.01 in 10.0 mi WSW 5.8 mph - N/A   Clear
9:53 PM 73.9 °F - 53.1 °F 48% 30.03 in 10.0 mi WNW 9.2 mph - N/A   Clear
10:53 PM 73.0 °F - 48.0 °F 41% 30.04 in 10.0 mi NW 17.3 mph - N/A   Clear
11:53 PM 71.1 °F - 48.0 °F 44% 30.05 in 10.0 mi NW 12.7 mph - N/A   Clear